37P/Forbes (2024)

Japanese version
Home page
Updated on June 5, 2024

---------------------------------------------------------------------

* Profile

* Pictures

* Orbital Elements

Epoch 2024 Mar. 31.0 TT = JDT 2460400.5
T 2024 Oct. 11.25875 TT                                 Rudenko
q   1.6177198            (2000.0)            P               Q
n   0.15294611     Peri.  330.06998     +0.25681168     +0.96008595
a   3.4629303      Node   314.55465     -0.85298054     +0.17124700
e   0.5328466      Incl.    8.94751     -0.45439185     +0.22115478
P   6.44
>From 1279 observations 2011 Feb. 8-2024 Mar. 18, mean residual 0".6.
     Nongravitational parameters A1 = +0.77, A2 = -0.0538.

* Finding Charts

* Magnitudes Graph

        m1 = 7.2 + 5 log d + 25 log r

---------------------------------------------------------------------

The orbital elements are published on M.P.E.C. 2024-F34.
The charts are made with StellaNavigator Ver.10 (AstroArts).
The magnitudes graphs are made with Comet for Windows.

---------------------------------------------------------------------

Copyright(C) Seiichi Yoshida (comet@aerith.net). All rights reserved.